This demonstration page uses our WeatherBlox Daily Observations layout. Learn more.

Left ArrowRight Arrow

39.01783, -85.05884

Hourly Observations for September 19, 2018

Temp ( °F °C ) Dew Point ( °F °C ) Humidity (%) Winds ( mph kmh ) Pressure ( in mb ) Visibility ( mi km ) Precip ( " mm )
12:52 am 00:52 Mostly Clear 69 20.6 66 18.9 90 90 S 5 7 29.90 1013 10 16 N/A
1:52 am 01:52 Mostly Clear 69 20.6 66 18.9 90 90 WSW 5 7 29.90 1013 10 16 N/A
2:52 am 02:52 Mostly Cloudy 72 22.2 66 18.9 82 82 WSW 3 6 29.90 1013 10 16 N/A
3:52 am 03:52 Mostly Cloudy 69 20.6 67 19.4 93 93 N N/A 29.91 1013 10 16 N/A
4:52 am 04:52 Mostly Clear 70 21.1 67 19.4 90 90 N N/A 29.91 1013 10 16 N/A
5:52 am 05:52 Mostly Clear 68 20 66 18.9 93 93 N N/A 29.93 1013 10 16 N/A
6:52 am 06:52 Partly Cloudy 71 21.7 67 19.4 87 87 WNW 6 9 29.95 1014 10 16 N/A
7:52 am 07:52 Mostly Cloudy 70 21.1 67 19.4 90 90 NNW 3 6 29.97 1015 9 14 N/A
8:52 am 08:52 Partly Cloudy 73 22.8 68 20 84 84 NNE 7 11 29.98 1015 9 14 N/A
9:52 am 09:52 Partly Cloudy 77 25 68 20 74 74 E 3 6 29.98 1015 9 14 N/A
10:52 am 10:52 Partly Cloudy 80 26.7 69 20.6 69 69 N N/A 29.98 1015 10 16 N/A
11:52 am 11:52 Mostly Sunny 85 29.4 68 20 57 57 NNE 3 6 29.99 1016 10 16 N/A
12:52 pm 12:52 Mostly Sunny 86 30 69 20.6 57 57 N N/A 30.00 1016 10 16 N/A
1:52 pm 13:52 Mostly Sunny 89 31.7 68 20 50 50 VRB 3 6 29.98 1015 10 16 N/A
2:52 pm 14:52 Partly Cloudy 88 31.1 67 19.4 50 50 N N/A 29.96 1015 10 16 N/A
3:52 pm 15:52 Mostly Sunny 90 32.2 68 20 48 48 VRB 6 9 29.96 1014 10 16 N/A
4:52 pm 16:52 Mostly Sunny 89 31.7 69 20.6 52 52 W 6 9 29.95 1014 10 16 N/A
5:52 pm 17:52 Mostly Sunny 88 31.1 68 20 52 52 N N/A 29.94 1014 10 16 N/A
6:52 pm 18:52 Partly Cloudy 87 30.6 69 20.6 55 55 N N/A 29.95 1014 10 16 N/A
7:52 pm 19:52 Mostly Clear 83 28.3 70 21.1 65 65 N N/A 29.97 1015 10 16 N/A
8:52 pm 20:52 Mostly Clear 76 24.4 71 21.7 85 85 N N/A 29.98 1015 10 16 N/A
9:52 pm 21:52 Mostly Clear 75 23.9 71 21.7 88 88 N N/A 29.99 1016 10 16 N/A
10:52 pm 22:52 Mostly Clear 81 27.2 70 21.1 69 69 N N/A 29.99 1016 10 16 N/A
11:52 pm 23:52 Clear 76 24.4 70 21.1 82 82 ESE 3 6 29.99 1016 10 16 N/A

Powered by AerisWeather